Regional Weather Roundup
Issued by NWS

Home | Current Version | Previous Version | Graphics & Text | Print | Product List | Glossary On
Versions: 1 2 3 4 5 6 7 8 9 10 11 12 13 14 15 16 17 18 19 20 21 22 23 24 25 26 27 28 29 30 31 32 33 34 35 36 37 38 39 40 41 42 43 44 45 46 47 48 49 50
000
ASUS43 KFSD 262110
RWRSD

WEATHER ROUNDUP FOR SOUTH DAKOTA
NATIONAL WEATHER SERVICE SIOUX FALLS SD
300 PM CST MON JAN 26 2015

NOTE: "FAIR" INDICATES FEW OR NO CLOUDS BELOW 12,000 FEET WITH NO
SIGNIFICANT WEATHER AND/OR OBSTRUCTIONS TO VISIBILITY.


SDZ001>005-009-010-012>017-262200-
NORTHWEST AND NORTH CENTRAL SOUTH DAKOTA

CITY           SKY/WX    TMP DP  RH WIND       PRES   REMARKS
BUFFALO          N/A     62  32  32 W15       29.92F
FAITH            N/A     58  29  33 NW9       29.98F
MOBRIDGE       SUNNY     53  36  52 NW12      29.94S
$$

SDZ012>016-024>037-041>051-057-063-072>074-262200-
SOUTHWEST AND SOUTH CENTRAL SOUTH DAKOTA

CITY           SKY/WX    TMP DP  RH WIND       PRES   REMARKS
RAPID CTY ARPT SUNNY     68  29  23 N16       30.01F
PIERRE         SUNNY     56  30  37 NW14      29.97F
CUSTER         SUNNY     60  24  25 NW9       30.10F
ELLSWORTH AFB  SUNNY     67  31  26 NW18G25   30.01F
PHILIP         SUNNY     63  31  30 N12       29.99F
PINE RIDGE     SUNNY     63  31  30 W12       30.05F
SPEARFISH      FAIR      64  28  25 NW12G18   30.05F
WINNER         FAIR      59  30  33 NW15      29.99F
$$

SDZ004>011-016>023-039-040-262200-
NORTHEAST SOUTH DAKOTA

CITY           SKY/WX    TMP DP  RH WIND       PRES   REMARKS
ABERDEEN       SUNNY     47  35  63 NW17G24   29.96R
WATERTOWN      SUNNY     42  34  73 NW18      29.88R
SISSETON         N/A     44  35  70 N22G29    29.87R
$$

SDZ017-020-022-023-036>040-048>070-262200-
SOUTHEAST SOUTH DAKOTA

CITY           SKY/WX    TMP DP  RH WIND       PRES   REMARKS
SIOUX FALLS    MOSUNNY   48  37  65 NW14      29.90S
HURON          SUNNY     50  37  61 NW16      29.95R
CHAMBERLAIN    SUNNY     53  32  44 NW14      29.98R
MITCHELL       SUNNY     53  38  56 NW16      29.96R
YANKTON        SUNNY     54  36  50 NW21      29.95R
$$

ABBREVIATIONS USED IN REMARKS
   TC - TEMPERATURE IN CELSIUS
  WCI - WIND CHILL INDEX
   HX - HEAT INDEX
  VSB - VISIBILITY




USA.gov is the U.S. government's official web portal to all federal, state and local government web resources and services.